| time (UTC) | temp C | wind direction | speed KPH | gust KPH | rain 1hr cm | rain 24hr cm | rain mn cm | humidity % | barometer mb |
| 20260505004036 | 18 | 198 | 0.0 | 1.6 | 0.00 | 0.00 | 0.00 | 69 | 1008.5 |
| 20260505003541 | 19 | 198 | 0.0 | 1.6 | 0.00 | 0.00 | 0.00 | 66 | 1008.6 |
| 20260505003154 | 20 | 284 | 0.0 | 3.2 | 0.00 | 0.00 | 0.00 | 63 | 1008.4 |
| 20260505002547 | 20 | 171 | 0.0 | 1.6 | 0.00 | 0.00 | 0.00 | 62 | 1008.4 |
| 20260505002017 | 20 | 171 | 0.0 | 3.2 | 0.00 | 0.00 | 0.00 | 60 | 1008.5 |
| 20260505001600 | 21 | 171 | 1.6 | 3.2 | 0.00 | 0.00 | 0.00 | 59 | 1008.3 |
| 20260505001047 | 21 | 191 | 0.0 | 3.2 | 0.00 | 0.00 | 0.00 | 57 | 1008.3 |
| 20260505000526 | 22 | 219 | 0.0 | 6.4 | 0.00 | 0.00 | 0.00 | 54 | 1008.5 |
| 20260505000152 | 22 | 155 | 1.6 | 6.4 | 0.00 | 0.00 | 0.00 | 52 | 1008.5 |
| 20260504235525 | 23 | 198 | 3.2 | 6.4 | 0.00 | 0.00 | 0.00 | 46 | 1008.4 |
| 20260504235032 | 23 | 190 | 3.2 | 9.7 | 0.00 | 0.00 | 0.00 | 45 | 1008.4 |
| 20260504234637 | 23 | 137 | 3.2 | 9.7 | 0.00 | 0.00 | 0.00 | 45 | 1008.4 |
| 20260504234023 | 23 | 212 | 1.6 | 12.9 | 0.00 | 0.00 | 0.00 | 45 | 1008.5 |
| 20260504233530 | 24 | 229 | 3.2 | 17.7 | 0.00 | 0.00 | 0.00 | 45 | 1008.6 |
| 20260504233110 | 24 | 189 | 6.4 | 17.7 | 0.00 | 0.00 | 0.00 | 44 | 1008.5 |
| 20260504232532 | 24 | 229 | 3.2 | 14.5 | 0.00 | 0.00 | 0.00 | 44 | 1008.4 |
| 20260504232027 | 24 | 209 | 8.0 | 14.5 | 0.00 | 0.00 | 0.00 | 43 | 1008.4 |
| 20260504231627 | 25 | 182 | 6.4 | 12.9 | 0.00 | 0.00 | 0.00 | 44 | 1008.5 |
| 20260504231023 | 25 | 105 | 1.6 | 8.0 | 0.00 | 0.00 | 0.00 | 44 | 1008.5 |
| 20260504230531 | 25 | 205 | 3.2 | 12.9 | 0.00 | 0.00 | 0.00 | 44 | 1008.3 |
| 20260504230214 | 25 | 209 | 4.8 | 12.9 | 0.00 | 0.00 | 0.00 | 43 | 1008.4 |
| 20260504225529 | 25 | 123 | 4.8 | 12.9 | 0.00 | 0.00 | 0.00 | 43 | 1008.3 |
| 20260504225022 | 25 | 199 | 6.4 | 16.1 | 0.00 | 0.00 | 0.00 | 43 | 1008.5 |
| 20260504224622 | 25 | 192 | 6.4 | 17.7 | 0.00 | 0.00 | 0.00 | 43 | 1008.5 |
| 20260504224022 | 25 | 178 | 8.0 | 16.1 | 0.00 | 0.00 | 0.00 | 43 | 1008.5 |
| 20260504223531 | 25 | 226 | 3.2 | 8.0 | 0.00 | 0.00 | 0.00 | 44 | 1008.5 |
| 20260504223135 | 25 | 206 | 3.2 | 12.9 | 0.00 | 0.00 | 0.00 | 44 | 1008.6 |
| 20260504222518 | 25 | 304 | 3.2 | 12.9 | 0.00 | 0.00 | 0.00 | 44 | 1008.6 |
| 20260504222039 | 25 | 288 | 4.8 | 12.9 | 0.00 | 0.00 | 0.00 | 43 | 1008.6 |
| 20260504221647 | 25 | 213 | 8.0 | 17.7 | 0.00 | 0.00 | 0.00 | 42 | 1008.6 |
| 20260504221029 | 25 | 164 | 8.0 | 17.7 | 0.00 | 0.00 | 0.00 | 43 | 1008.7 |
| 20260504220530 | 25 | 213 | 4.8 | 11.3 | 0.00 | 0.00 | 0.00 | 44 | 1008.8 |
| 20260504220147 | 25 | 178 | 4.8 | 9.7 | 0.00 | 0.00 | 0.00 | 45 | 1008.9 |
| 20260504215531 | 25 | 205 | 4.8 | 9.7 | 0.00 | 0.00 | 0.00 | 44 | 1008.9 |
| 20260504215019 | 25 | 259 | 1.6 | 11.3 | 0.00 | 0.00 | 0.00 | 44 | 1009.0 |
| 20260504214630 | 25 | 182 | 3.2 | 14.5 | 0.00 | 0.00 | 0.00 | 43 | 1008.8 |
| 20260504214041 | 25 | 306 | 8.0 | 14.5 | 0.00 | 0.00 | 0.00 | 43 | 1008.8 |
| 20260504213529 | 25 | 190 | 3.2 | 14.5 | 0.00 | 0.00 | 0.00 | 43 | 1008.9 |
| 20260504213150 | 25 | 325 | 4.8 | 14.5 | 0.00 | 0.00 | 0.00 | 45 | 1009.0 |
| 20260504212518 | 25 | 197 | 4.8 | 12.9 | 0.00 | 0.00 | 0.00 | 46 | 1008.9 |
| 20260504212024 | 25 | 225 | 3.2 | 12.9 | 0.00 | 0.00 | 0.00 | 45 | 1009.0 |
| 20260504211709 | 26 | 221 | 6.4 | 12.9 | 0.00 | 0.00 | 0.00 | 44 | 1009.2 |
| 20260504211037 | 26 | 214 | 6.4 | 11.3 | 0.00 | 0.00 | 0.00 | 45 | 1009.1 |
| 20260504210544 | 26 | 185 | 4.8 | 11.3 | 0.00 | 0.00 | 0.00 | 45 | 1009.1 |
| 20260504210208 | 25 | 191 | 4.8 | 12.9 | 0.00 | 0.00 | 0.00 | 45 | 1009.2 |
| 20260504205521 | 25 | 219 | 6.4 | 14.5 | 0.00 | 0.00 | 0.00 | 48 | 1009.5 |
| 20260504205034 | 25 | 307 | 6.4 | 19.3 | 0.00 | 0.00 | 0.00 | 47 | 1009.2 |
| 20260504204639 | 25 | 262 | 9.7 | 19.3 | 0.00 | 0.00 | 0.00 | 45 | 1009.4 |
| 20260504204024 | 25 | 212 | 6.4 | 16.1 | 0.00 | 0.00 | 0.00 | 46 | 1009.5 |
| 20260504203524 | 25 | 209 | 8.0 | 20.9 | 0.00 | 0.00 | 0.00 | 47 | 1009.5 |
| 20260504203205 | 24 | 284 | 9.7 | 20.9 | 0.00 | 0.00 | 0.00 | 47 | 1009.6 |
| 20260504202541 | 25 | 205 | 4.8 | 19.3 | 0.00 | 0.00 | 0.00 | 47 | 1009.5 |
| 20260504202027 | 24 | 279 | 6.4 | 19.3 | 0.00 | 0.00 | 0.00 | 48 | 1009.5 |
| 20260504201646 | 24 | 219 | 4.8 | 16.1 | 0.00 | 0.00 | 0.00 | 47 | 1009.7 |
| 20260504201040 | 24 | 227 | 8.0 | 19.3 | 0.00 | 0.00 | 0.00 | 47 | 1009.7 |
| 20260504200536 | 23 | 195 | 6.4 | 19.3 | 0.00 | 0.00 | 0.00 | 49 | 1009.8 |
| 20260504200204 | 23 | 222 | 4.8 | 16.1 | 0.00 | 0.00 | 0.00 | 49 | 1009.8 |
| 20260504195534 | 23 | 187 | 6.4 | 20.9 | 0.00 | 0.00 | 0.00 | 49 | 1010.0 |
| 20260504195025 | 23 | 311 | 8.0 | 20.9 | 0.00 | 0.00 | 0.00 | 48 | 1010.0 |
| 20260504194707 | 23 | 163 | 8.0 | 17.7 | 0.00 | 0.00 | 0.00 | 46 | 1010.1 |
| 20260504194040 | 23 | 169 | 8.0 | 16.1 | 0.00 | 0.00 | 0.00 | 48 | 1010.4 |
| 20260504193531 | 23 | 229 | 6.4 | 16.1 | 0.00 | 0.00 | 0.00 | 49 | 1010.3 |
| 20260504193152 | 23 | 254 | 8.0 | 22.5 | 0.00 | 0.00 | 0.00 | 48 | 1010.3 |
| 20260504192529 | 23 | 192 | 6.4 | 22.5 | 0.00 | 0.00 | 0.00 | 49 | 1010.4 |
| 20260504192033 | 22 | 184 | 6.4 | 20.9 | 0.00 | 0.00 | 0.00 | 50 | 1010.4 |
| 20260504191648 | 22 | 158 | 6.4 | 20.9 | 0.00 | 0.00 | 0.00 | 50 | 1010.4 |
| 20260504191024 | 22 | 267 | 4.8 | 24.1 | 0.00 | 0.00 | 0.00 | 53 | 1010.5 |
| 20260504190524 | 22 | 217 | 11.3 | 24.1 | 0.00 | 0.00 | 0.00 | 51 | 1010.6 |
| 20260504190209 | 22 | 185 | 6.4 | 14.5 | 0.00 | 0.00 | 0.00 | 55 | 1010.7 |
| 20260504185523 | 21 | 248 | 4.8 | 12.9 | 0.00 | 0.00 | 0.00 | 61 | 1010.8 |
| 20260504185038 | 20 | 178 | 3.2 | 12.9 | 0.00 | 0.00 | 0.00 | 64 | 1010.9 |
| 20260504184700 | 19 | 268 | 1.6 | 14.5 | 0.00 | 0.00 | 0.00 | 75 | 1011.0 |
| 20260504184029 | 17 | 135 | 4.8 | 14.5 | 0.00 | 0.00 | 0.00 | 70 | 1011.0 |
| 20260504183533 | 18 | 236 | 8.0 | 12.9 | 0.00 | 0.00 | 0.00 | 68 | 1011.4 |
| 20260504183138 | 18 | 240 | 3.2 | 12.9 | 0.00 | 0.00 | 0.00 | 63 | 1011.6 |
| 20260504182533 | 20 | 161 | 4.8 | 12.9 | 0.00 | 0.00 | 0.00 | 59 | 1012.2 |
| 20260504182045 | 20 | 235 | 3.2 | 16.1 | 0.00 | 0.00 | 0.00 | 54 | 1012.6 |
| 20260504181648 | 20 | 217 | 6.4 | 11.3 | 0.00 | 0.00 | 0.00 | 53 | 1012.2 |
| 20260504181029 | 21 | 261 | 4.8 | 16.1 | 0.00 | 0.00 | 0.00 | 52 | 1011.7 |
| 20260504180525 | 21 | 106 | 6.4 | 16.1 | 0.00 | 0.00 | 0.00 | 49 | 1011.5 |
| 20260504180204 | 22 | 261 | 6.4 | 24.1 | 0.00 | 0.00 | 0.00 | 48 | 1011.4 |
| 20260504175546 | 22 | 225 | 9.7 | 24.1 | 0.00 | 0.00 | 0.00 | 46 | 1011.3 |
| 20260504175039 | 23 | 209 | 11.3 | 20.9 | 0.00 | 0.00 | 0.00 | 45 | 1011.3 |
| 20260504174650 | 23 | 302 | 6.4 | 17.7 | 0.00 | 0.00 | 0.00 | 46 | 1011.0 |
| 20260504174043 | 23 | 225 | 4.8 | 22.5 | 0.00 | 0.00 | 0.00 | 46 | 1011.2 |
| 20260504173521 | 22 | 164 | 4.8 | 25.7 | 0.00 | 0.00 | 0.00 | 47 | 1010.8 |
| 20260504173142 | 23 | 219 | 8.0 | 25.7 | 0.00 | 0.00 | 0.00 | 48 | 1011.4 |
| 20260504172534 | 22 | 174 | 4.8 | 19.3 | 0.00 | 0.00 | 0.00 | 49 | 1011.2 |
| 20260504172047 | 22 | 275 | 6.4 | 16.1 | 0.00 | 0.00 | 0.00 | 48 | 1011.0 |
| 20260504171648 | 21 | 193 | 4.8 | 16.1 | 0.00 | 0.00 | 0.00 | 53 | 1011.0 |
| 20260504171021 | 21 | 228 | 6.4 | 16.1 | 0.00 | 0.00 | 0.00 | 52 | 1011.2 |
| 20260504170542 | 20 | 261 | 6.4 | 14.5 | 0.00 | 0.00 | 0.00 | 54 | 1011.3 |
| 20260504170156 | 20 | 237 | 6.4 | 14.5 | 0.00 | 0.00 | 0.00 | 52 | 1011.4 |
| 20260504160135 | 20 | 180 | 4.8 | 14.5 | 0.00 | 0.00 | 0.00 | 57 | 1012.0 |
| 20260504151022 | 17 | 184 | 6.4 | 19.3 | 0.00 | 0.00 | 0.00 | 64 | 1012.6 |
| 20260504150526 | 17 | 194 | 8.0 | 19.3 | 0.00 | 0.00 | 0.00 | 64 | 1013.0 |
| 20260504150154 | 17 | 306 | 4.8 | 14.5 | 0.00 | 0.00 | 0.00 | 66 | 1013.3 |
| 20260504141045 | 14 | 171 | 3.2 | 12.9 | 0.00 | 0.00 | 0.00 | 75 | 1013.6 |
| 20260504140538 | 13 | 128 | 4.8 | 16.1 | 0.00 | 0.00 | 0.00 | 77 | 1013.8 |
| 20260504140200 | 13 | 201 | 3.2 | 9.7 | 0.00 | 0.00 | 0.00 | 79 | 1013.8 |
| 20260504130535 | 13 | 210 | 4.8 | 17.7 | 0.00 | 0.00 | 0.00 | 66 | 1013.9 |
| 20260504130147 | 13 | 171 | 8.0 | 16.1 | 0.00 | 0.00 | 0.00 | 65 | 1013.5 |
| 20260504120128 | 12 | 332 | 4.8 | 11.3 | 0.00 | 0.00 | 0.00 | 61 | 1013.4 |
| 20260504110527 | 9 | 239 | 0.0 | 4.8 | 0.00 | 0.00 | 0.00 | 72 | 1013.0 |
| 20260504110225 | 9 | 226 | 1.6 | 6.4 | 0.00 | 0.00 | 0.00 | 74 | 1013.1 |
| 20260504100547 | 7 | 195 | 0.0 | 3.2 | 0.00 | 0.00 | 0.00 | 79 | 1013.2 |
| 20260504100130 | 7 | 195 | 0.0 | 3.2 | 0.00 | 0.00 | 0.00 | 81 | 1012.9 |
| 20260504090130 | 6 | 279 | 0.0 | 1.6 | 0.00 | 0.00 | 0.00 | 87 | 1013.6 |
| 20260504081639 | 6 | 279 | 0.0 | 1.6 | 0.00 | 0.00 | 0.00 | 85 | 1013.7 |
| 20260504081028 | 6 | 279 | 0.0 | 0.0 | 0.00 | 0.00 | 0.00 | 85 | 1013.7 |
| 20260504080517 | 6 | 279 | 0.0 | 1.6 | 0.00 | 0.00 | 0.00 | 84 | 1013.5 |
| 20260504080132 | 6 | 279 | 0.0 | 1.6 | 0.00 | 0.00 | 0.00 | 83 | 1013.5 |
| 20260504070220 | 7 | 205 | 0.0 | 3.2 | 0.00 | 0.00 | 0.00 | 82 | 1014.3 |
| 20260504060147 | 9 | 119 | 0.0 | 3.2 | 0.00 | 0.00 | 0.00 | 78 | 1014.8 |
| 20260504050525 | 10 | 259 | 4.8 | 9.7 | 0.00 | 0.00 | 0.00 | 74 | 1014.8 |
| 20260504050159 | 9 | 232 | 4.8 | 8.0 | 0.00 | 0.00 | 0.00 | 78 | 1014.9 |
| 20260504045527 | 9 | 163 | 3.2 | 8.0 | 0.00 | 0.00 | 0.00 | 79 | 1015.0 |
| 20260504045031 | 9 | 229 | 3.2 | 6.4 | 0.00 | 0.00 | 0.00 | 79 | 1015.2 |
| 20260504044617 | 9 | 200 | 1.6 | 4.8 | 0.00 | 0.00 | 0.00 | 79 | 1015.2 |
| 20260504044036 | 9 | 223 | 1.6 | 6.4 | 0.00 | 0.00 | 0.00 | 79 | 1015.3 |
| 20260504043526 | 9 | 197 | 3.2 | 6.4 | 0.00 | 0.00 | 0.00 | 79 | 1015.3 |
| 20260504043131 | 9 | 195 | 1.6 | 4.8 | 0.00 | 0.00 | 0.00 | 79 | 1015.3 |
| 20260504042542 | 9 | 179 | 1.6 | 4.8 | 0.00 | 0.00 | 0.00 | 79 | 1015.3 |
| 20260504042021 | 9 | 204 | 0.0 | 3.2 | 0.00 | 0.00 | 0.00 | 79 | 1015.6 |
| 20260504041631 | 9 | 259 | 1.6 | 3.2 | 0.00 | 0.00 | 0.00 | 80 | 1015.6 |
| 20260504041024 | 9 | 180 | 0.0 | 1.6 | 0.00 | 0.00 | 0.00 | 80 | 1015.6 |
| 20260504040545 | 10 | 180 | 0.0 | 1.6 | 0.00 | 0.00 | 0.00 | 80 | 1015.6 |
| 20260504040139 | 10 | 180 | 0.0 | 0.0 | 0.00 | 0.00 | 0.00 | 80 | 1015.6 |
| 20260504035537 | 10 | 180 | 0.0 | 0.0 | 0.00 | 0.00 | 0.00 | 79 | 1015.6 |
| 20260504035021 | 10 | 180 | 0.0 | 0.0 | 0.00 | 0.00 | 0.00 | 79 | 1015.7 |
| 20260504034640 | 10 | 180 | 0.0 | 0.0 | 0.00 | 0.00 | 0.00 | 78 | 1015.7 |
| 20260504034035 | 10 | 180 | 0.0 | 1.6 | 0.00 | 0.00 | 0.00 | 79 | 1015.6 |
| 20260504033526 | 10 | 180 | 0.0 | 1.6 | 0.00 | 0.00 | 0.00 | 77 | 1015.4 |
| 20260504033121 | 10 | 200 | 0.0 | 1.6 | 0.00 | 0.00 | 0.00 | 76 | 1015.5 |
| 20260504032519 | 10 | 200 | 0.0 | 1.6 | 0.00 | 0.00 | 0.00 | 76 | 1015.5 |
| 20260504032035 | 10 | 200 | 0.0 | 3.2 | 0.00 | 0.00 | 0.00 | 76 | 1015.4 |
| 20260504031625 | 10 | 218 | 0.0 | 6.4 | 0.00 | 0.00 | 0.00 | 73 | 1015.5 |
| 20260504031046 | 10 | 202 | 1.6 | 6.4 | 0.00 | 0.00 | 0.00 | 72 | 1015.4 |
| 20260504030540 | 10 | 76 | 0.0 | 1.6 | 0.00 | 0.00 | 0.00 | 73 | 1015.5 |
| 20260504030143 | 10 | 76 | 0.0 | 3.2 | 0.00 | 0.00 | 0.00 | 72 | 1015.7 |
| 20260504025542 | 10 | 76 | 0.0 | 3.2 | 0.00 | 0.00 | 0.00 | 71 | 1015.6 |
| 20260504025025 | 11 | 124 | 0.0 | 1.6 | 0.00 | 0.00 | 0.00 | 71 | 1015.7 |
| 20260504024625 | 11 | 143 | 0.0 | 3.2 | 0.00 | 0.00 | 0.00 | 69 | 1015.8 |
| 20260504024031 | 10 | 156 | 0.0 | 3.2 | 0.00 | 0.00 | 0.00 | 68 | 1015.7 |
| 20260504023547 | 10 | 156 | 0.0 | 3.2 | 0.00 | 0.00 | 0.00 | 68 | 1015.6 |
| 20260504023139 | 11 | 152 | 0.0 | 0.0 | 0.00 | 0.00 | 0.00 | 69 | 1015.7 |
| 20260504022532 | 11 | 152 | 0.0 | 0.0 | 0.00 | 0.00 | 0.00 | 69 | 1015.4 |
| 20260504022024 | 11 | 152 | 0.0 | 1.6 | 0.00 | 0.00 | 0.00 | 69 | 1015.5 |
| 20260504021610 | 11 | 152 | 0.0 | 3.2 | 0.00 | 0.00 | 0.00 | 67 | 1015.2 |
| 20260504021033 | 11 | 167 | 0.0 | 4.8 | 0.00 | 0.00 | 0.00 | 66 | 1015.2 |
| 20260504020520 | 11 | 166 | 0.0 | 3.2 | 0.00 | 0.00 | 0.00 | 66 | 1015.2 |
| 20260504020141 | 11 | 182 | 0.0 | 3.2 | 0.00 | 0.00 | 0.00 | 64 | 1015.2 |
| 20260504015533 | 11 | 222 | 0.0 | 3.2 | 0.00 | 0.00 | 0.00 | 66 | 1015.2 |
| 20260504015028 | 11 | 247 | 0.0 | 3.2 | 0.00 | 0.00 | 0.00 | 63 | 1015.1 |
| 20260504014634 | 11 | 234 | 0.0 | 3.2 | 0.00 | 0.00 | 0.00 | 63 | 1014.7 |
| 20260504014032 | 11 | 217 | 1.6 | 3.2 | 0.00 | 0.00 | 0.00 | 64 | 1014.9 |
| 20260504013548 | 11 | 186 | 0.0 | 4.8 | 0.00 | 0.00 | 0.00 | 64 | 1014.7 |
| 20260504013142 | 11 | 211 | 1.6 | 3.2 | 0.00 | 0.00 | 0.00 | 64 | 1014.6 |
| 20260504012533 | 11 | 131 | 0.0 | 1.6 | 0.00 | 0.00 | 0.00 | 64 | 1014.6 |
| 20260504012025 | 11 | 131 | 0.0 | 1.6 | 0.00 | 0.00 | 0.00 | 65 | 1015.1 |
| 20260504011622 | 11 | 131 | 0.0 | 1.6 | 0.00 | 0.00 | 0.00 | 64 | 1014.9 |
| 20260504011044 | 11 | 131 | 0.0 | 4.8 | 0.00 | 0.00 | 0.00 | 64 | 1014.9 |
| 20260504010523 | 11 | 148 | 0.0 | 4.8 | 0.00 | 0.00 | 0.00 | 62 | 1014.7 |
| 20260504010151 | 11 | 172 | 3.2 | 4.8 | 0.00 | 0.00 | 0.00 | 62 | 1015.1 |
| 20260504005529 | 11 | 178 | 3.2 | 4.8 | 0.00 | 0.00 | 0.00 | 63 | 1015.0 |
| 20260504005043 | 11 | 159 | 0.0 | 3.2 | 0.00 | 0.00 | 0.00 | 62 | 1015.1 |
| 20260504004637 | 11 | 98 | 0.0 | 1.6 | 0.00 | 0.00 | 0.00 | 62 | 1015.2 |